DW3706 Weather Reports


time (UTC)temp
F
wind
direction
speed
knots
gust
knots
rain 1hr
in
rain 24hr
in
rain mn
in
humidity
%
barometer
mb
20260507070010 56 354 0.9 6.1 0.00 0.06 0.00 81 1006.0
20260507065506 56 291 0.9 6.1 0.00 0.06 0.00 82 1006.2
20260507065004 56 178 1.7 6.1 0.00 0.06 0.00 83 1006.2
20260507064509 57 326 1.7 7.8 0.00 0.06 0.00 84 1006.2
20260507064004 57 356 1.7 7.8 0.00 0.06 0.00 83 1006.2
20260507063508 57 25 0.9 5.2 0.00 0.06 0.00 83 1006.4
20260507063005 57 360 0.9 7.0 0.00 0.06 0.00 83 1006.2
20260507062503 57 102 0.9 7.0 0.00 0.06 0.00 83 1005.9
20260507062011 57 24 2.6 5.2 0.00 0.06 0.00 83 1006.0
20260507061522 57 350 0.0 4.3 0.00 0.06 0.00 84 1006.0
20260507061004 58 8 0.9 4.3 0.00 0.06 0.00 84 1006.1
20260507060506 58 357 0.9 4.3 0.00 0.06 0.00 84 1006.1
20260507060021 58 13 0.9 6.1 0.00 0.06 0.00 84 1006.1
20260507055504 58 178 0.9 6.1 0.00 0.06 0.00 84 1006.4
20260507055004 58 354 1.7 5.2 0.00 0.06 0.00 85 1006.2
20260507054508 59 5 1.7 5.2 0.00 0.06 0.00 86 1006.6
20260507054010 59 228 0.0 2.6 0.00 0.06 0.00 86 1006.5
20260507053506 59 228 0.9 2.6 0.00 0.06 0.00 86 1006.5
20260507053013 59 9 0.0 2.6 0.00 0.06 0.00 86 1006.5
20260507052507 59 277 0.9 2.6 0.00 0.06 0.00 87 1006.3
20260507052007 59 286 0.0 3.5 0.00 0.06 0.00 87 1006.2
20260507051512 59 259 0.9 6.1 0.00 0.06 0.00 87 1006.1
20260507051007 59 321 1.7 4.3 0.00 0.06 0.00 88 1006.3
20260507050506 59 206 0.9 7.0 0.00 0.06 0.00 88 1006.3
20260507050024 59 190 2.6 6.1 0.00 0.06 0.00 89 1006.4
20260507045507 59 242 1.7 6.1 0.00 0.06 0.00 89 1006.2
20260507045007 59 233 3.5 6.1 0.00 0.06 0.00 90 1006.2
20260507044505 60 231 1.7 3.5 0.00 0.06 0.00 90 1006.1
20260507044005 59 214 0.9 4.3 0.00 0.06 0.00 91 1006.0
20260507043506 59 246 1.7 5.2 0.00 0.06 0.00 91 1006.1
20260507043011 59 213 2.6 5.2 0.00 0.06 0.00 91 1006.0
20260507042507 59 248 0.9 3.5 0.00 0.06 0.00 91 1006.0
20260507042006 59 223 1.7 7.0 0.00 0.06 0.00 91 1006.0
20260507041516 59 265 1.7 7.8 0.00 0.06 0.00 91 1006.0
20260507041010 59 223 2.6 8.7 0.00 0.06 0.00 91 1006.2
20260507040506 59 217 2.6 8.7 0.00 0.06 0.00 91 1006.2
20260507040018 59 234 2.6 7.0 0.00 0.06 0.00 91 1006.4
20260507035508 59 239 2.6 8.7 0.00 0.06 0.06 91 1006.2
20260507035004 59 218 3.5 8.7 0.00 0.06 0.06 91 1006.4
20260507034513 59 242 3.5 7.8 0.00 0.06 0.06 91 1006.2
20260507034008 59 242 3.5 7.8 0.00 0.06 0.06 91 1006.2
20260507033510 59 240 2.6 9.6 0.00 0.06 0.06 91 1006.2
20260507033010 58 233 4.3 9.6 0.00 0.06 0.06 91 1006.1
20260507032507 58 250 2.6 8.7 0.00 0.06 0.06 91 1006.1
20260507032007 58 279 2.6 8.7 0.00 0.06 0.06 91 1006.0
20260507031507 58 203 4.3 8.7 0.00 0.06 0.06 91 1006.0
20260507031009 58 259 2.6 8.7 0.00 0.06 0.06 91 1005.8
20260507030509 58 228 3.5 8.7 0.00 0.06 0.06 91 1005.7
20260507030020 58 236 3.5 8.7 0.00 0.06 0.06 91 1005.6
20260507025509 58 212 2.6 7.8 0.00 0.06 0.06 91 1005.6
20260507025008 58 229 1.7 7.0 0.00 0.06 0.06 91 1005.8
20260507024522 58 248 3.5 8.7 0.00 0.06 0.06 91 1006.0
20260507024012 58 213 2.6 8.7 0.00 0.06 0.06 91 1005.9
20260507023508 58 261 3.5 8.7 0.00 0.06 0.06 91 1005.8
20260507023020 58 247 4.3 8.7 0.00 0.06 0.06 91 1005.8
20260507022511 58 249 6.1 8.7 0.00 0.06 0.06 91 1005.8
20260507022007 58 254 2.6 7.8 0.00 0.06 0.06 91 1005.8
20260507021514 58 263 4.3 9.6 0.00 0.06 0.06 91 1005.9
20260507021007 57 259 4.3 9.6 0.00 0.06 0.06 91 1005.9
20260507020508 57 269 3.5 9.6 0.00 0.06 0.06 91 1005.8
20260507020016 57 219 1.7 9.6 0.00 0.06 0.06 91 1005.9
20260507015506 57 246 2.6 8.7 0.00 0.06 0.06 91 1005.8
20260507015010 57 214 1.7 9.6 0.00 0.06 0.06 91 1005.9
20260507014511 57 249 3.5 8.7 0.00 0.06 0.06 91 1006.1
20260507014009 57 232 3.5 9.6 0.00 0.06 0.06 91 1006.0
20260507013507 57 232 4.3 10.4 0.00 0.06 0.06 91 1006.1
20260507013026 57 246 3.5 10.4 0.00 0.06 0.06 91 1006.1
20260507012506 57 252 4.3 11.3 0.00 0.06 0.06 90 1006.3
20260507012012 57 233 4.3 11.3 0.00 0.06 0.06 90 1006.2
20260507011528 57 228 4.3 10.4 0.00 0.06 0.06 90 1006.3
20260507011004 57 252 6.1 11.3 0.00 0.06 0.06 90 1006.4
20260507010511 57 258 5.2 11.3 0.00 0.06 0.06 90 1006.4
20260507010023 57 237 5.2 12.2 0.01 0.06 0.06 90 1006.4
20260507005504 57 250 6.1 12.2 0.01 0.06 0.06 90 1006.4
20260507005006 57 261 4.3 12.2 0.01 0.06 0.06 90 1006.4
20260507004520 57 233 2.6 9.6 0.01 0.06 0.06 90 1006.3
20260507004007 57 254 2.6 11.3 0.01 0.06 0.06 90 1006.3
20260507003510 57 260 4.3 11.3 0.01 0.06 0.06 90 1006.4
20260507003019 57 272 4.3 13.0 0.02 0.06 0.06 90 1006.3
20260507002503 57 227 6.1 13.0 0.02 0.06 0.06 90 1006.2
20260507002003 57 234 5.2 11.3 0.02 0.06 0.06 90 1006.2
20260507001507 57 228 3.5 11.3 0.02 0.06 0.06 90 1006.1
20260507001003 57 250 3.5 11.3 0.02 0.06 0.06 90 1006.1
20260507000506 57 236 5.2 11.3 0.02 0.06 0.06 90 1006.0
20260507000012 57 223 5.2 9.6 0.01 0.05 0.05 90 1006.1
20260506235509 57 242 5.2 12.2 0.01 0.05 0.05 90 1006.1
20260506235007 57 199 3.5 12.2 0.01 0.05 0.05 90 1006.0
20260506234512 57 259 5.2 12.2 0.01 0.05 0.05 89 1006.0
20260506234011 57 236 6.1 12.2 0.01 0.05 0.05 89 1005.9
20260506233509 58 243 6.1 12.2 0.01 0.05 0.05 89 1005.9
20260506233009 58 215 6.1 11.3 0.00 0.04 0.04 89 1006.0
20260506232506 58 245 5.2 11.3 0.00 0.04 0.04 89 1005.9
20260506232010 58 247 5.2 11.3 0.01 0.04 0.04 89 1005.9
20260506231507 58 241 5.2 11.3 0.01 0.04 0.04 89 1006.2
20260506231004 58 250 4.3 10.4 0.01 0.04 0.04 89 1006.4
20260506230504 58 240 7.0 10.4 0.01 0.04 0.04 89 1006.4
20260506230013 58 217 5.2 10.4 0.01 0.04 0.04 89 1006.2
20260506225504 58 238 5.2 10.4 0.01 0.04 0.04 89 1006.1
20260506225006 58 257 5.2 12.2 0.02 0.04 0.04 89 1006.2
20260506224515 58 246 6.1 12.2 0.02 0.04 0.04 89 1006.3
20260506224008 58 188 4.3 12.2 0.02 0.04 0.04 89 1006.5
20260506223507 58 220 7.0 12.2 0.02 0.04 0.04 89 1006.6
20260506223016 58 261 3.5 9.6 0.03 0.04 0.04 89 1006.6
20260506222510 59 199 4.3 9.6 0.03 0.04 0.04 88 1006.7
20260506222005 59 263 2.6 11.3 0.02 0.03 0.03 88 1006.7
20260506221516 59 213 3.5 11.3 0.02 0.03 0.03 88 1006.8
20260506221009 59 256 6.1 11.3 0.02 0.03 0.03 87 1006.9
20260506220504 59 256 3.5 11.3 0.02 0.03 0.03 87 1006.8
20260506220008 60 223 3.5 11.3 0.02 0.03 0.03 88 1006.9
20260506215507 60 186 3.5 9.6 0.02 0.03 0.03 87 1007.1
20260506215009 60 198 5.2 10.4 0.01 0.02 0.02 87 1007.1
20260506214510 60 209 3.5 11.3 0.02 0.02 0.02 87 1007.1
20260506214007 60 206 4.3 11.3 0.02 0.02 0.02 86 1007.1
20260506213510 60 229 4.3 11.3 0.02 0.02 0.02 86 1007.0
20260506213025 60 231 3.5 13.0 0.01 0.01 0.01 86 1007.0
20260506212507 60 231 3.5 13.9 0.01 0.01 0.01 86 1007.1
20260506212010 60 248 4.3 13.9 0.01 0.01 0.01 86 1007.1
20260506211537 60 199 4.3 11.3 0.01 0.01 0.01 85 1007.2
20260506211009 61 232 4.3 11.3 0.01 0.01 0.01 85 1007.2
20260506210507 61 217 4.3 11.3 0.01 0.01 0.01 85 1007.1
20260506210031 61 238 6.1 11.3 0.01 0.01 0.01 84 1007.2
20260506205511 61 222 2.6 13.9 0.01 0.01 0.01 84 1007.2
20260506205007 61 234 6.1 13.9 0.01 0.01 0.01 83 1007.3
20260506204516 61 244 2.6 12.2 0.00 0.00 0.00 82 1007.3
20260506204007 61 214 5.2 12.2 0.00 0.00 0.00 82 1007.2
20260506203506 61 237 7.0 12.2 0.00 0.00 0.00 81 1007.2
20260506203015 61 211 5.2 11.3 0.00 0.00 0.00 81 1007.2
20260506202510 61 158 5.2 11.3 0.00 0.00 0.00 80 1007.2
20260506202012 61 248 5.2 9.6 0.00 0.00 0.00 80 1007.1
20260506201511 62 249 3.5 12.2 0.00 0.00 0.00 80 1007.1
20260506201009 62 242 3.5 12.2 0.00 0.00 0.00 79 1007.2
20260506200508 62 203 3.5 11.3 0.00 0.00 0.00 79 1007.2
20260506200029 62 221 5.2 11.3 0.00 0.00 0.00 79 1007.2
20260506195511 62 250 3.5 12.2 0.00 0.00 0.00 78 1007.3
20260506195013 62 229 6.1 12.2 0.00 0.00 0.00 77 1007.3
20260506194510 62 257 6.1 13.0 0.00 0.00 0.00 77 1007.3
20260506194008 62 163 7.0 13.0 0.00 0.00 0.00 76 1007.5
20260506193507 63 209 3.5 11.3 0.00 0.00 0.00 76 1007.5
20260506193025 63 179 5.2 12.2 0.00 0.00 0.00 75 1007.6
20260506192510 63 207 7.8 12.2 0.00 0.00 0.00 74 1007.6
20260506192009 63 227 5.2 11.3 0.00 0.00 0.00 73 1007.5
20260506191522 64 238 5.2 11.3 0.00 0.00 0.00 72 1007.4
20260506191009 64 213 6.1 11.3 0.00 0.00 0.00 71 1007.4
20260506190506 64 257 4.3 9.6 0.00 0.00 0.00 70 1007.3
20260506190020 64 251 5.2 13.9 0.00 0.00 0.00 70 1007.4
20260506185510 65 193 6.1 13.9 0.00 0.00 0.00 70 1007.5
20260506185007 65 215 7.0 13.0 0.00 0.00 0.00 70 1007.4
20260506184513 65 190 6.1 13.0 0.00 0.00 0.00 69 1007.4
20260506184008 65 261 5.2 12.2 0.00 0.00 0.00 69 1007.5
20260506183507 65 255 4.3 14.8 0.00 0.00 0.00 69 1007.5
20260506183010 65 227 4.3 14.8 0.00 0.00 0.00 69 1007.5
20260506182505 65 268 7.8 16.5 0.00 0.00 0.00 68 1007.6
20260506182011 66 173 7.0 16.5 0.00 0.00 0.00 68 1007.6
20260506181534 66 231 6.1 14.8 0.00 0.00 0.00 67 1007.7
20260506181006 67 209 7.0 14.8 0.00 0.00 0.00 66 1007.7
20260506180507 67 239 6.1 13.9 0.00 0.00 0.00 65 1007.8
20260506180025 67 225 6.1 14.8 0.00 0.00 0.00 65 1007.9
20260506175509 67 236 7.0 17.4 0.00 0.00 0.00 65 1007.9
20260506175008 67 196 9.6 17.4 0.00 0.00 0.00 65 1008.1
20260506174528 67 190 7.0 15.6 0.00 0.00 0.00 65 1008.0
20260506174014 67 253 5.2 15.6 0.00 0.00 0.00 66 1008.0
20260506173508 67 259 8.7 13.0 0.00 0.00 0.00 65 1008.2
20260506173038 68 244 5.2 12.2 0.00 0.00 0.00 64 1008.2
20260506172510 68 237 5.2 13.0 0.00 0.00 0.00 64 1008.2
20260506172009 68 202 3.5 13.0 0.00 0.00 0.00 64 1008.1
20260506171522 67 248 6.1 13.0 0.00 0.00 0.00 66 1008.0
20260506171006 67 252 5.2 12.2 0.00 0.00 0.00 66 1008.1
20260506170508 67 190 6.1 14.8 0.00 0.00 0.00 66 1008.2
20260506170016 67 218 7.0 14.8 0.00 0.00 0.00 65 1008.3
20260506165508 67 269 5.2 12.2 0.00 0.00 0.00 66 1008.3
20260506165009 67 201 4.3 10.4 0.00 0.00 0.00 66 1008.3
20260506164528 67 258 5.2 10.4 0.00 0.00 0.00 66 1008.4
20260506164013 67 231 4.3 11.3 0.00 0.00 0.00 65 1008.4
20260506163511 67 215 5.2 12.2 0.00 0.00 0.00 64 1008.6
20260506163029 68 211 3.5 13.9 0.00 0.00 0.00 64 1008.7
20260506162509 67 258 6.1 13.9 0.00 0.00 0.00 65 1008.8
20260506162017 67 236 7.0 13.9 0.00 0.00 0.00 65 1008.8
20260506161514 67 256 4.3 13.9 0.00 0.00 0.00 65 1008.9
20260506161016 67 224 6.1 12.2 0.00 0.00 0.00 65 1008.9
20260506160507 67 236 6.1 12.2 0.00 0.00 0.00 65 1009.1
20260506160023 67 246 6.1 12.2 0.00 0.00 0.00 65 1009.2
20260506155510 67 208 5.2 10.4 0.00 0.00 0.00 65 1009.3
20260506155007 68 38 4.3 15.6 0.00 0.00 0.00 64 1009.5
20260506154525 68 169 6.1 15.6 0.00 0.00 0.00 64 1009.4
20260506154012 68 273 7.0 14.8 0.00 0.00 0.00 64 1009.5
20260506153515 68 212 7.0 13.9 0.00 0.00 0.00 64 1009.5
20260506153025 68 186 5.2 12.2 0.00 0.00 0.00 64 1009.6
20260506152508 68 250 5.2 12.2 0.00 0.00 0.00 64 1009.7
20260506152013 68 244 5.2 16.5 0.00 0.00 0.00 65 1009.7
20260506151516 68 233 7.0 16.5 0.00 0.00 0.00 64 1009.8
20260506151009 68 228 6.1 13.9 0.00 0.00 0.00 65 1009.8
20260506150510 67 212 6.1 13.9 0.00 0.00 0.00 66 1009.8
20260506150017 67 245 7.0 13.0 0.00 0.00 0.00 65 1009.8
20260506145507 67 228 6.1 13.0 0.00 0.00 0.00 66 1009.7
20260506145008 67 213 4.3 13.0 0.00 0.00 0.00 65 1009.7
20260506144521 68 250 7.0 13.0 0.00 0.00 0.00 65 1009.6
20260506144008 67 246 5.2 13.0 0.00 0.00 0.00 66 1009.6
20260506143509 67 247 7.0 12.2 0.00 0.00 0.00 66 1009.6
20260506143027 67 219 6.1 11.3 0.00 0.00 0.00 67 1009.5
20260506142514 67 263 6.1 11.3 0.00 0.00 0.00 67 1009.6
20260506142008 67 177 6.1 12.2 0.00 0.00 0.00 67 1009.5
20260506141524 66 282 3.5 12.2 0.00 0.00 0.00 68 1009.5
20260506141010 66 225 3.5 10.4 0.00 0.00 0.00 69 1009.6
20260506140508 65 230 6.1 10.4 0.00 0.00 0.00 69 1009.6
20260506140025 65 225 4.3 9.6 0.00 0.00 0.00 70 1009.6
20260506135511 65 182 5.2 11.3 0.00 0.00 0.00 71 1009.6
20260506135007 64 213 5.2 11.3 0.00 0.00 0.00 71 1009.7
20260506134520 64 202 5.2 12.2 0.00 0.00 0.00 72 1010.0
20260506134011 63 236 7.0 12.2 0.00 0.00 0.00 73 1010.1
20260506133513 63 256 7.0 10.4 0.00 0.00 0.00 73 1010.1
20260506133023 63 226 3.5 10.4 0.00 0.00 0.00 73 1010.2
20260506132511 63 187 3.5 11.3 0.00 0.00 0.00 73 1010.2
20260506132012 63 278 5.2 11.3 0.00 0.00 0.00 74 1010.1
20260506131526 63 242 4.3 11.3 0.00 0.00 0.00 74 1010.0
20260506131009 63 258 6.1 11.3 0.00 0.00 0.00 74 1010.1
20260506130516 63 259 4.3 9.6 0.00 0.00 0.00 75 1010.2
20260506130026 63 227 4.3 9.6 0.00 0.00 0.00 75 1010.2
20260506125510 62 225 3.5 9.6 0.00 0.00 0.00 75 1010.2
20260506125009 62 232 3.5 9.6 0.00 0.00 0.00 76 1010.2
20260506124526 62 200 3.5 10.4 0.00 0.00 0.00 77 1010.4
20260506124010 61 181 3.5 13.0 0.00 0.00 0.00 78 1010.3
20260506123508 60 207 6.1 13.0 0.00 0.00 0.00 79 1010.2
20260506123024 60 212 7.0 12.2 0.00 0.00 0.00 78 1010.1
20260506122510 61 236 5.2 12.2 0.00 0.00 0.00 79 1010.1
20260506122006 60 223 6.1 12.2 0.00 0.00 0.00 80 1010.0
20260506121525 60 198 6.1 13.0 0.00 0.00 0.00 79 1010.0
20260506121011 60 254 5.2 13.0 0.00 0.00 0.00 80 1010.2
20260506120510 60 204 4.3 12.2 0.00 0.00 0.00 80 1010.4
20260506120020 60 230 7.0 12.2 0.00 0.00 0.00 81 1010.3
20260506115508 59 133 4.3 11.3 0.00 0.00 0.00 81 1010.4
20260506115012 60 195 4.3 10.4 0.00 0.00 0.00 81 1010.6
20260506114528 59 229 5.2 11.3 0.00 0.00 0.00 81 1010.7
20260506114011 59 202 5.2 11.3 0.00 0.00 0.00 82 1010.6
20260506113510 59 223 3.5 10.4 0.00 0.00 0.00 82 1010.7
20260506113022 59 232 5.2 10.4 0.00 0.00 0.00 83 1010.4
20260506112509 58 137 3.5 11.3 0.00 0.00 0.00 83 1010.5
20260506112009 58 240 5.2 11.3 0.00 0.00 0.00 83 1010.5
20260506111524 58 239 6.1 12.2 0.00 0.00 0.00 83 1010.3
20260506111007 58 225 7.0 12.2 0.00 0.00 0.00 82 1010.4
20260506110511 58 238 7.0 12.2 0.00 0.00 0.00 83 1010.4
20260506110028 58 221 7.8 13.0 0.00 0.00 0.00 83 1010.3
20260506105511 58 229 7.0 13.0 0.00 0.00 0.00 82 1010.4
20260506105011 58 269 5.2 10.4 0.00 0.00 0.00 82 1010.5
20260506104553 58 226 6.1 10.4 0.00 0.00 0.00 82 1010.5
20260506104009 58 244 3.5 9.6 0.00 0.00 0.00 82 1010.6
20260506103510 58 183 4.3 11.3 0.00 0.00 0.00 82 1010.6
20260506103024 59 220 6.1 11.3 0.00 0.00 0.00 81 1010.5
20260506102512 59 229 4.3 11.3 0.00 0.00 0.00 81 1010.4
20260506102010 59 229 3.5 11.3 0.00 0.00 0.00 81 1010.4
20260506101524 59 202 3.5 12.2 0.00 0.00 0.00 81 1010.4
20260506101008 59 197 4.3 12.2 0.00 0.00 0.00 81 1010.4
20260506100508 59 235 5.2 11.3 0.00 0.00 0.00 81 1010.2
20260506100036 59 172 5.2 10.4 0.00 0.00 0.00 81 1010.1
20260506095505 59 256 5.2 11.3 0.00 0.00 0.00 81 1010.2
20260506095009 59 234 4.3 11.3 0.00 0.00 0.00 81 1010.2
20260506094512 59 246 3.5 10.4 0.00 0.00 0.00 81 1010.2
20260506094006 59 207 4.3 11.3 0.00 0.00 0.00 81 1010.2
20260506093502 59 227 3.5 13.0 0.00 0.00 0.00 81 1010.1
20260506093014 59 215 3.5 14.8 0.00 0.00 0.00 81 1010.1
20260506092509 59 238 6.1 14.8 0.00 0.00 0.00 81 1010.1
20260506092010 59 257 3.5 12.2 0.00 0.00 0.00 80 1010.1
20260506091510 59 243 6.1 12.2 0.00 0.00 0.00 80 1010.0
20260506091010 59 225 5.2 13.0 0.00 0.00 0.00 80 1010.1
20260506090513 59 218 7.0 13.0 0.00 0.00 0.00 80 1010.2
20260506090025 59 211 4.3 13.0 0.00 0.00 0.00 79 1010.2
20260506085506 59 197 4.3 13.0 0.00 0.00 0.00 79 1010.3
20260506085006 59 267 6.1 13.0 0.00 0.00 0.00 79 1010.1
20260506084510 59 215 3.5 12.2 0.00 0.00 0.00 79 1010.2
20260506084009 59 265 4.3 12.2 0.00 0.00 0.00 78 1010.2
20260506083506 60 242 6.1 13.0 0.00 0.00 0.00 78 1010.2
20260506083035 60 209 4.3 13.9 0.00 0.00 0.00 78 1010.2
20260506082505 60 232 4.3 13.9 0.00 0.00 0.00 78 1010.1
20260506082006 60 208 5.2 13.9 0.00 0.00 0.00 78 1010.1
20260506081520 60 259 5.2 13.9 0.00 0.00 0.00 78 1010.0
20260506081010 60 221 5.2 13.9 0.00 0.00 0.00 77 1010.1
20260506080505 60 247 7.0 13.9 0.00 0.00 0.00 77 1010.0
20260506073512 60 243 7.0 12.2 0.00 0.00 0.00 77 1010.0
20260506073008 60 202 5.2 16.5 0.00 0.00 0.00 77 1010.0
20260506072508 60 223 7.8 16.5 0.00 0.00 0.00 77 1010.0
20260506072010 60 240 4.3 14.8 0.00 0.00 0.00 77 1010.0
20260506071522 60 207 6.1 17.4 0.00 0.00 0.00 76 1010.0
20260506071006 60 219 5.2 17.4 0.00 0.00 0.00 77 1009.9
20260506070507 60 256 5.2 12.2 0.00 0.00 0.00 76 1009.9